Voltar ao catálogo

STARLINK-11250

AtivoComunicaçõesVLEO
NORAD 60910·PAYLOAD·🇺🇸 United States

Lançado Aug 31, 2024 de Cape Canaveral Space Force Station

Loading…

Próximas Passagens (próximas 24 horas)

TLE

AtualizadoSource: CelesTrak SupGP

Época: Sep 14, 2026, 21:10 UTC

1 60910C 24154H   26257.88243056  .00016790  00000+0  13832-3 0  2579
2 60910  53.1572 278.6910 0001065  98.5822  64.0841 15.69697720    16

Acompanhe STARLINK-11250 em tempo real com AllMySat

Download on the App Store